ISS
1 25544U 98067A 09309.86935794 .00018392 00000-0 12008-3 0 9292
2 25544 051.6431 299.0934 0006202 298.6359 148.5370 15.75906518628270
CO-58
1 28895U 05043F 09308.71575238 .00000179 00000-0 46923-4 0 4341
2 28895 098.0391 195.2387 0016939 268.6380 091.2903 14.59810807214239
FALCON
1 30776U 07006E 09308.43292723 .00000630 00000-0 48534-4 0 07050
2 30776 035.4346 328.4563 0001346 021.9220 338.1554 15.03356710146215
MAST
1 31126U 07012K 09308.60508827 .00000063 00000-0 24781-4 0 7239
2 31126 097.9709 356.8499 0094242 203.4724 156.2146 14.53527321135437
CAPE1
1 31130U 07012P 09308.64439262 .00000136 00000-0 42116-4 0 7349
2 31130 097.9731 354.7623 0101976 209.9122 149.6221 14.52100354135071
COMPASS
1 32787U 08021E 09308.23415640 .00000293 00000-0 43929-4 0 05107
2 32787 097.9272 010.7559 0014947 299.9351 060.0376 14.81685112082183
AAUSAT2
1 32788U 08021F 09308.86551939 .00000056 00000-0 13820-4 0 5035
2 32788 097.9282 011.4655 0014452 300.6704 059.3068 14.81811375 82285
DO-64
1 32789U 08021G 09308.75159620 .00000715 00000-0 97090-4 0 5184
2 32789 097.9322 011.6099 0014747 297.0540 062.9167 14.81841415 82265
CO-66
1 32791U 08021J 09309.71194278 .00000103 00000-0 19951-4 0 4991
2 32791 097.9287 012.2488 0015308 292.8585 067.0998 14.81503026 82365
RS-30
1 32953U 08025A 09308.72454195 .00000010 00000-0 00000 0 0 4450
2 32953 082.5034 169.2441 0018104 232.2596 127.6842 12.43003129 65855
TACSAT-3
1 35001U 09028A 09308.88379814 .00002928 00000-0 78223-4 0 01456
2 35001 040.4553 118.9512 0022195 128.8611 231.4188 15.39478096026035
PHARMSAT
1 35002U 09028B 09308.86539278 .00003012 00000-0 78279-4 0 1318
2 35002 040.4681 118.0871 0025130 133.5161 226.7750 15.40210181 26035
HAWKSAT1
1 35003U 09028C 09309.83370206 .00005719 00000-0 13859-3 0 1397
2 35003 040.4609 111.2049 0024936 146.5926 213.6468 15.41205902 26200
CP6
1 35004U 09028D 09308.85769066 .00006779 00000-0 16257-3 0 01342
2 35004 040.4619 117.0158 0024436 138.5077 221.7592 15.41332583026046
AEROCUB3
1 35005U 09028E 09308.87925500 .00006197 00000-0 15038-3 0 01421
2 35005 040.4744 117.3734 0024090 135.0336 225.2440 15.41090888026045
DRAGNSAT
1 35690U 09038B 09308.88970455 .00040381 00000-0 16236-3 0 00975
2 35690 051.6439 297.8566 0006381 083.7478 276.4253 15.85988572015420
POLLUX
1 35693U 09038E 09309.62437395 .00036216 00000-0 15284-3 0 998
2 35693 051.6405 294.5252 0005549 051.4676 308.6778 15.85042312 15501
CASTOR
1 35694U 09038F 09309.62722070 .00017207 00000-0 83686-4 0 919
2 35694 051.6417 295.3215 0005456 049.3497 310.7957 15.82542855 15492
METEOR-M
1 35865U 09049A 09308.85962865 .00000176 00000-0 10000-3 0 00470
2 35865 098.7934 358.8882 0001534 302.5945 057.5064 14.21827075006844
STERKH-2
1 35866U 09049B 09308.84372761 .00000178 00000-0 10000-3 0 517
2 35866 098.7943 358.9163 0002365 300.5261 059.5647 14.22298883 6849
FREGAT-I
1 35867U 09049C 09309.81668871 .00002268 00000-0 10000-3 0 585
2 35867 097.3672 358.9647 0011690 111.9106 248.3173 15.22753937 7473
